Home > Weather > Köniz > Past weeks

Flag for Switzerland Past Weather in Köniz, Bern, Switzerland — Yesterday and Last 2 Weeks

Now
66 °F

Partly sunny.


Feels Like: 66 °F
Forecast: 51 / 69 °F
Wind: 6 mph from Southeast

Location: Bern / Belp

Current Time: Jun 26, 2016 at 12:14:52 PM

Latest Report: Jun 26, 2016 at 11:50 AM


Visibility: N/A

Pressure: 30.12 "Hg (28.15 "Hg at 579m altitude)

Humidity: 68%

Dew Point: 55 °F

Location of KönizLocation

Past Weather in Köniz — Graph

°F

Köniz Temperature Yesterday

Maximum temperature yesterday: 73 °F (at 12:50 PM)
Minimum temperature yesterday: 59 °F (at 11:50 PM)
Average temperature yesterday: 66 °F

High & Low Weather Summary for the Past Weeks

 TemperatureHumidityPressure
High91 °F (Jun 23, 5:20 PM)100% (Jun 11, 10:20 AM)30.27 "Hg (Jun 11, 10:20 AM)
Low48 °F (Jun 15, 12:20 AM)31% (Jun 24, 3:20 PM)29.59 "Hg (Jun 15, 4:50 AM)
Average62 °F84%29.98 "Hg
* Reported Jun 11 10:20 AM — Jun 26 10:50 AM, Köniz, Weather by CustomWeather, © 2016

Note: Actual official high and low records may vary slightly from our data, if they occured in-between our weather recording intervals... More about our weather records

Advertising

Köniz Weather History for the Previous 24 Hours

Scroll right to see more
 ConditionsComfort  
Time TempWeatherWind HumidityBarometerVisibility
10:50 AM
Sun, Jun 26
66 °FScattered clouds.3 mph68%30.12 "HgN/A
10:20 AM64 °FScattered clouds.3 mph73%30.09 "HgN/A
9:50 AM63 °FScattered clouds.3 mph77%30.12 "HgN/A
9:20 AM63 °FPassing clouds.1 mph83%30.12 "HgN/A
8:50 AM61 °FScattered clouds.2 mph83%30.12 "HgN/A
8:20 AM61 °FScattered clouds.3 mph83%30.09 "HgN/A
7:50 AM59 °FScattered clouds.5 mph88%30.12 "HgN/A
7:20 AM61 °FScattered clouds.2 mph83%30.09 "HgN/A
6:50 AM57 °FScattered clouds.2 mph94%30.09 "HgN/A
6:20 AM55 °FPassing clouds.3 mph100%30.09 "HgN/A
5:50 AM55 °FPassing clouds.2 mph100%30.09 "HgN/A
5:20 AM55 °FOvercast.3 mph100%30.09 "HgN/A
4:50 AM55 °FOvercast.2 mph100%30.09 "HgN/A
4:20 AM55 °FPartly cloudy.2 mph100%30.09 "HgN/A
3:50 AM55 °FPassing clouds.5 mph100%30.09 "HgN/A
3:20 AM57 °FPassing clouds.2 mph94%30.09 "HgN/A
2:50 AM57 °FPassing clouds.5 mph94%30.09 "HgN/A
2:20 AM57 °FPassing clouds.5 mph100%30.12 "HgN/A
1:50 AM59 °FOvercast.5 mph94%30.12 "HgN/A
1:20 AM59 °FPartly cloudy.3 mph94%30.12 "HgN/A
12:50 AM59 °FMostly cloudy.1 mph100%30.12 "HgN/A
12:20 AM59 °FPartly cloudy.1 mph100%30.12 "HgN/A
11:50 PM
Sat, Jun 25
59 °FMostly cloudy.2 mph100%30.12 "HgN/A
11:20 PM61 °FMostly cloudy.1 mph94%30.12 "HgN/A
10:50 PM61 °FLight rain. Overcast.1 mph94%30.12 "HgN/A
10:20 PM61 °FOvercast.2 mph94%30.09 "HgN/A
9:50 PM61 °FMostly cloudy.3 mph94%30.09 "HgN/A
9:20 PM61 °FPartly sunny.3 mph88%30.09 "HgN/A
8:50 PM63 °FDrizzle. Partly sunny.7 mph83%30.09 "Hg5 mi
8:20 PM64 °FBroken clouds.14 mph83%30.07 "HgN/A
7:50 PM66 °FBroken clouds.8 mph83%30.04 "HgN/A
7:20 PM66 °FBroken clouds.7 mph83%30.04 "HgN/A
6:50 PM66 °FBroken clouds.8 mph78%30.04 "HgN/A
6:20 PM64 °FBroken clouds.8 mph88%30.04 "HgN/A
5:50 PM66 °FBroken clouds.8 mph83%30.04 "HgN/A
5:20 PM68 °FBroken clouds.7 mph83%30.04 "HgN/A
4:50 PM66 °FSprinkles. Broken clouds.5 mph88%30.04 "Hg6 mi
4:20 PM64 °FThundershowers. Broken clouds.9 mph88%30.04 "Hg6 mi
3:50 PM66 °FThundershowers. Broken clouds.9 mph83%30.04 "HgN/A
3:20 PM66 °FThundershowers. Scattered clouds.8 mph88%30.04 "HgN/A
2:50 PM68 °FScattered clouds.7 mph78%30.04 "HgN/A
2:20 PM68 °FScattered clouds.3 mph88%30.01 "HgN/A
1:50 PM70 °FThundershowers. Broken clouds.2 mph88%30.01 "HgN/A
1:20 PM72 °FRain showers. Scattered clouds.7 mph78%30.01 "HgN/A
12:50 PM73 °FBroken clouds.3 mph69%29.98 "HgN/A
12:20 PM72 °FPartly sunny.7 mph78%30.01 "HgN/A
Weather by CustomWeather, © 2016

See weather overviewHow to use our weather pages